Date String (YYYY-MM-DD hh:mm:ss) UTC,Instrument flags,absolute air pressure of the measurement (hPa),sample flow rate (lpm),inlet stack bypass flow (lpm),air temperature of the measurement (°C),ambient temperature measured by the external sensor (°C),aerosol sample conditioner tube jacket temperature (°C),OPC LED temperature (°C),internal box temperature (°C),relative humidity of the measurement (%),span deviation,mass concentration of particles derived from Lorenz-Mie calculation of OPC scattering (μg/m³),mass concentration of particles derived from Lorenz-Mie calculation of OPC scattering (μg/m³),mass concentration of particles derived from Lorenz-Mie calculation of OPC scattering (μg/m³)
DateTimeUTC,F1_M11,P_M11,Q1_M11,Q2_M11,T1_M11,T2_M11,T3_M11,T4_M11,T5_M11,U1_M11,ZSPAN_M11,X2_M11,X0_M11,X1_M11
2023-08-04 13:00:00,SystemResetWarning,0833.7,5.00,000.00,029.6,026.7,000.0,038.2,031.0,30.3,0000.0,0004.06,0007.35,0003.66
2023-08-04 13:01:00,SystemResetWarning,0833.7,5.01,000.00,029.6,027.1,000.0,038.2,031.0,30.4,0000.0,0004.07,0007.41,0003.65
2023-08-04 13:02:00,SystemResetWarning,0833.7,5.01,000.00,029.6,027.3,000.0,038.2,031.1,31.0,0000.0,0004.10,0007.49,0003.65
2023-08-04 13:03:00,SystemResetWarning,0833.7,4.99,000.00,029.6,027.6,000.0,038.2,031.1,31.4,0000.0,0004.10,0007.58,0003.64
2023-08-04 13:04:00,SystemResetWarning,0833.7,5.00,000.00,029.6,027.7,000.0,038.2,031.1,31.3,0000.0,0004.11,0007.72,0003.63
2023-08-04 13:05:00,SystemResetWarning,0833.7,5.01,000.00,029.7,027.9,000.0,038.2,031.2,31.1,0000.0,0004.09,0007.72,0003.62
2023-08-04 13:06:00,SystemResetWarning,0833.8,5.00,000.00,029.7,028.0,000.0,038.2,031.2,31.5,0000.0,0004.06,0007.69,0003.61
2023-08-04 13:07:00,SystemResetWarning,0833.7,5.00,000.00,029.7,028.1,000.0,038.2,031.2,31.3,0000.0,0004.06,0007.71,0003.60
2023-08-04 13:08:00,SystemResetWarning,0833.7,5.00,000.00,029.7,028.2,000.0,038.2,031.3,31.6,0000.0,0004.03,0007.61,0003.60
2023-08-04 13:09:00,SystemResetWarning,0833.7,5.00,000.00,029.7,028.3,000.0,038.2,031.3,31.0,0000.0,0004.02,0007.26,0003.59
2023-08-04 13:10:00,SystemResetWarning,0833.7,5.00,000.00,029.7,028.4,000.0,038.2,031.3,30.7,0000.0,0004.01,0007.11,0003.58
2023-08-04 13:11:00,SystemResetWarning,0833.7,5.00,000.00,029.8,028.4,000.0,038.2,031.3,30.0,0000.0,0003.99,0006.90,0003.58
2023-08-04 13:12:00,SystemResetWarning,0833.7,4.99,000.00,029.8,028.5,000.0,038.2,031.4,30.0,0000.0,0003.99,0006.85,0003.58
2023-08-04 13:13:00,SystemResetWarning,0833.8,5.00,000.00,029.8,028.5,000.0,038.2,031.4,29.6,0000.0,0003.94,0006.62,0003.57
2023-08-04 13:14:00,SystemResetWarning,0833.7,5.01,000.00,029.8,028.6,000.0,038.3,031.4,30.7,0000.0,0003.95,0006.47,0003.57
2023-08-04 13:15:00,SystemResetWarning,0833.8,5.00,000.00,029.8,028.6,000.0,038.3,031.4,30.6,0000.0,0003.97,0006.32,0003.56
2023-08-04 13:16:00,SystemResetWarning,0833.8,5.00,000.00,029.9,028.6,000.0,038.3,031.5,31.3,0000.0,0003.97,0006.45,0003.56
2023-08-04 13:17:00,SystemResetWarning,0833.8,4.99,000.00,029.9,028.6,000.0,038.3,031.5,30.4,0000.0,0003.99,0006.57,0003.56
2023-08-04 13:18:00,SystemResetWarning,0833.7,4.99,000.00,029.9,027.3,000.0,038.2,031.3,30.2,0000.0,0004.00,0006.66,0003.55
2023-08-04 13:19:00,SystemResetWarning,0833.8,5.01,000.00,029.8,025.6,000.0,038.1,031.1,30.9,0000.0,0004.03,0006.95,0003.54
2023-08-04 13:20:00,SystemResetWarning,0833.8,5.00,000.00,029.7,025.2,000.0,038.0,030.9,31.5,0000.0,0004.08,0007.33,0003.53
2023-08-04 13:21:00,SystemResetWarning,0833.8,5.01,000.00,029.6,025.4,000.0,038.0,030.6,32.3,0000.0,0004.10,0007.53,0003.53
2023-08-04 13:22:00,SystemResetWarning,0833.8,5.00,000.00,029.5,025.8,000.0,038.0,030.7,32.4,0000.0,0004.10,0007.57,0003.52
2023-08-04 13:23:00,SystemResetWarning,0833.8,5.00,000.00,029.5,026.2,000.0,038.1,030.7,32.9,0000.0,0004.09,0007.57,0003.51
2023-08-04 13:24:00,SystemResetWarning,0833.8,5.00,000.00,029.4,026.6,000.0,038.1,030.8,33.9,0000.0,0004.07,0007.51,0003.50
2023-08-04 13:25:00,SystemResetWarning,0833.8,5.00,000.00,029.4,026.9,000.0,038.0,030.9,34.1,0000.0,0004.01,0007.40,0003.49
2023-08-04 13:26:00,SystemResetWarning,0833.8,5.00,000.00,029.4,027.2,000.0,038.0,030.9,33.7,0000.0,0003.98,0007.30,0003.48
2023-08-04 13:27:00,SystemResetWarning,0833.8,5.00,000.00,029.5,027.4,000.0,038.0,031.0,33.7,0000.0,0003.97,0007.18,0003.47
2023-08-04 13:28:00,SystemResetWarning,0833.8,5.00,000.00,029.5,027.6,000.0,038.0,031.0,33.7,0000.0,0003.99,0007.26,0003.47
2023-08-04 13:29:00,SystemResetWarning,0833.8,5.00,000.00,029.5,027.8,000.0,038.0,031.0,33.8,0000.0,0004.01,0008.18,0003.47
2023-08-04 13:30:00,SystemResetWarning,0833.8,5.00,000.00,029.5,027.9,000.0,038.0,031.1,33.7,0000.0,0003.99,0008.35,0003.47
2023-08-04 13:31:00,SystemResetWarning,0833.8,4.99,000.00,029.5,028.0,000.0,038.0,031.1,33.4,0000.0,0003.95,0008.19,0003.47
2023-08-04 13:32:00,SystemResetWarning,0833.8,4.99,000.00,029.5,028.1,000.0,038.0,031.2,33.1,0000.0,0003.94,0008.09,0003.47
2023-08-04 13:33:00,SystemResetWarning,0833.8,5.00,000.00,029.6,028.2,000.0,038.0,031.2,33.5,0000.0,0003.98,0008.25,0003.47
2023-08-04 13:34:00,SystemResetWarning,0833.8,5.00,000.00,029.6,028.3,000.0,038.0,031.2,33.6,0000.0,0003.97,0008.21,0003.47
2023-08-04 13:35:00,SystemResetWarning,0833.9,5.01,000.00,029.6,028.4,000.0,038.1,031.3,33.9,0000.0,0003.96,0008.21,0003.46
2023-08-04 13:36:00,SystemResetWarning,0833.8,5.01,000.00,029.7,028.5,000.0,038.1,031.3,34.7,0000.0,0003.96,0008.24,0003.45
2023-08-04 13:37:00,SystemResetWarning,0833.8,4.99,000.00,029.7,028.5,000.0,038.1,031.3,34.6,0000.0,0003.95,0008.21,0003.45
2023-08-04 13:38:00,SystemResetWarning,0833.8,4.98,000.00,029.7,028.6,000.0,038.1,031.4,35.3,0000.0,0003.93,0008.13,0003.45
2023-08-04 13:39:00,SystemResetWarning,0833.9,5.03,000.00,029.9,028.6,000.0,038.2,031.5,35.1,0000.0,0003.90,0008.00,0003.45
2023-08-04 13:40:00,SystemResetWarning,0834.0,4.98,000.00,030.2,028.0,000.0,038.1,031.6,34.6,0000.0,0003.87,0006.80,0003.43
2023-08-04 13:41:00,SystemResetWarning,0833.9,5.00,000.00,030.3,026.3,000.0,038.0,031.4,34.2,0000.0,0003.86,0006.31,0003.44
2023-08-04 13:42:00,SystemResetWarning,0833.9,5.02,000.00,030.4,025.4,000.0,038.0,031.1,33.5,0000.0,0003.87,0006.35,0003.44
2023-08-04 13:43:00,SystemResetWarning,0833.9,4.99,000.00,030.3,025.4,000.0,038.0,030.9,33.9,0000.0,0003.89,0007.32,0003.45
2023-08-04 13:44:00,SystemResetWarning,0833.8,5.00,000.00,030.2,025.8,000.0,038.1,030.8,34.0,0000.0,0003.91,0007.37,0003.44
2023-08-04 13:45:00,SystemResetWarning,0833.8,5.01,000.00,030.2,026.2,000.0,038.2,030.9,34.4,0000.0,0003.97,0007.61,0003.45
2023-08-04 13:46:00,SystemResetWarning,0833.8,5.01,000.00,030.2,026.6,000.0,038.2,031.0,34.2,0000.0,0004.03,0007.77,0003.47
2023-08-04 13:47:00,SystemResetWarning,0833.9,4.99,000.00,030.2,027.0,000.0,038.3,031.0,33.8,0000.0,0004.04,0007.84,0003.48
2023-08-04 13:48:00,SystemResetWarning,0833.9,5.00,000.00,030.2,027.3,000.0,038.3,031.1,30.9,0000.0,0004.05,0007.84,0003.49
2023-08-04 13:49:00,SystemResetWarning,0833.9,5.00,000.00,030.2,027.5,000.0,038.4,031.1,30.7,0000.0,0004.06,0008.06,0003.49
2023-08-04 13:50:00,SystemResetWarning,0833.9,5.00,000.00,030.2,027.7,000.0,038.4,031.2,31.1,0000.0,0004.07,0008.47,0003.49
2023-08-04 13:51:00,SystemResetWarning,0834.0,5.00,000.00,030.2,027.9,000.0,038.4,031.2,31.1,0000.0,0004.03,0008.42,0003.49
2023-08-04 13:52:00,SystemResetWarning,0833.9,5.01,000.00,030.2,028.0,000.0,038.4,031.3,31.0,0000.0,0004.04,0008.68,0003.50
2023-08-04 13:53:00,SystemResetWarning,0833.9,5.01,000.00,030.3,028.2,000.0,038.5,031.3,31.8,0000.0,0004.04,0008.70,0003.49
2023-08-04 13:54:00,SystemResetWarning,0833.9,4.99,000.00,030.3,028.3,000.0,038.5,031.4,31.4,0000.0,0003.98,0008.45,0003.48
2023-08-04 13:55:00,SystemResetWarning,0833.8,4.98,000.00,030.3,028.4,000.0,038.5,031.4,35.2,0000.0,0003.93,0008.23,0003.47
2023-08-04 13:56:00,SystemResetWarning,0833.9,5.04,000.00,030.4,028.4,000.0,038.5,031.5,36.5,0000.0,0003.89,0008.08,0003.46
2023-08-04 13:57:00,SystemResetWarning,0833.8,4.99,000.00,030.7,028.5,000.0,038.6,031.7,35.6,0000.0,0003.84,0008.16,0003.45
2023-08-04 13:58:00,SystemResetWarning,0833.9,5.01,000.00,031.1,028.6,000.0,038.6,031.8,34.2,0000.0,0003.84,0008.36,0003.44
2023-08-04 13:59:00,SystemResetWarning,0833.9,4.98,000.00,031.3,028.3,000.0,038.6,031.9,33.6,0000.0,0003.88,0008.43,0003.45
